[[{"header":{"parameterUnit":"m.s-1","parameterCategory":1,"la1":30.2991,"la2":30.254,"lo1":-89.0895,"lo2":-89.0444,"dy":0.0017,"dx":0.0017,"nx":28,"ny":28,"refTime":"2025-07-10T03:00:00:Z","depth":0,"parameterNumber":2,"parameterNumberName":"U-component_of_WINDS"},"data":[0,0,0,0,0,0,0,0,0,0,0,0,0,0,0,0,0,0,0,0,0,0,0,0,0,0,0,0,0,0,0,0,0,0,0,0,0,0,0,0,0,0,0,0,0,0,0,0,0,0,0,0,0,0,0,0,0,0,3.0091,3.0093,0,3.0255,3.0257,3.0259,3.0258,3.0256,3.0254,3.0252,3.0427,3.0433,3.044,0,0,0,0,0,0,0,0,0,0,0,0,0,2.9782,2.9788,3.0091,3.0093,3.0095,3.0255,3.0257,3.026,3.0258,3.0256,3.0253,3.0251,3.0424,3.0432,3.044,0,0,0,0,0,0,0,0,0,0,0,0,0,2.9929,2.979,3.009,3.0113,3.0117,3.0255,3.0257,3.026,3.0259,3.0256,3.0252,3.0249,3.0422,3.0432,3.0442,3.0569,0,0,3.0472,3.0477,0,0,0,0,0,0,0,0,2.992,2.994,3.0108,3.0112,3.0116,3.0233,3.0213,3.0364,3.026,3.0205,3.0252,3.0248,3.0365,3.038,3.0418,3.0577,3.0585,3.0473,3.0479,3.0483,3.0486,0,0,0,0,0,0,0,2.991,2.9933,3.0156,3.011,3.0116,3.0118,3.0135,3.0241,3.0302,3.021,3.021,3.0229,3.0367,3.0408,3.0422,3.0587,3.0473,3.0482,3.0488,3.0492,3.086,3.0864,0,0,0,0,0,0,2.9894,2.9924,3.0151,3.0161,3.0008,3.0126,3.0145,3.0199,3.0301,3.0313,3.0232,3.0229,3.0393,3.041,3.0428,3.0584,3.0483,3.0493,3.0499,3.0857,3.0861,3.0865,0,0,0,0,0,0,2.9888,2.9914,3.0144,3.0043,3.0072,3.0135,3.0195,3.0204,3.0245,3.0317,3.0329,3.0262,3.0391,3.0414,3.0534,3.059,3.0497,3.0506,3.0852,3.0858,3.0863,3.0895,0,0,0,0,0,0,2.9879,2.9912,2.9959,3.0044,3.0078,3.0245,3.0198,3.0209,3.0261,3.0259,3.0349,3.0361,3.039,3.0519,3.0544,3.0602,3.0514,3.0847,3.0855,3.0861,3.089,3.0902,3.0912,0,0,0,0,0,2.9868,2.9963,2.9962,2.9989,3.0137,3.0248,3.0267,3.0297,3.0266,3.0315,3.0362,3.0358,3.058,3.0531,3.0559,3.0621,3.0844,3.0853,3.0861,3.0885,3.0899,3.0911,0,0,0,0,0,0,2.9885,2.9975,2.9974,3.0099,3.0166,3.0247,3.031,3.0312,3.039,3.0384,3.042,3.0441,3.056,3.0603,3.0547,3.075,3.0708,3.0723,3.0717,3.0731,3.0742,3.0728,3.0523,0,0,0,0,0,2.9903,2.9983,3.0058,3.0162,3.0195,3.0247,3.0296,3.0313,3.0384,3.0413,3.0468,3.054,3.0626,3.0681,3.0764,3.0897,3.0917,3.0954,3.0965,3.0974,3.0985,3.1059,3.1076,3.0893,3.0893,3.0893,0,0,2.9942,3.0001,3.0049,3.0166,3.022,3.0304,3.027,3.036,3.0423,3.0428,3.0542,3.0586,3.0669,3.0795,3.0853,3.0834,3.104,3.0984,3.0991,3.0998,3.1069,3.1086,3.1102,3.0899,3.0898,3.0897,0,0,3.0055,3.0108,3.0199,3.0253,3.0334,3.0368,3.0391,3.0473,3.0501,3.0617,3.0622,3.0699,3.0846,3.0904,3.0953,3.109,3.109,3.1117,3.1174,3.1245,3.1259,3.1272,3.132,3.1337,3.1129,3.1129,3.1129,0,3.0093,3.0217,3.0246,3.0336,3.0388,3.0394,3.0488,3.0541,3.0646,3.0682,3.066,3.0844,3.09,3.104,3.1073,3.1113,3.1141,3.1105,3.1254,3.1268,3.128,3.1327,3.1345,3.1131,3.1131,3.1131,3.1131,0,3.026,3.0346,3.0411,3.051,3.0569,3.0661,3.0706,3.0764,3.0777,3.0814,3.0933,3.1001,3.1097,3.1133,3.1147,3.1276,3.1261,3.1246,3.1205,3.13,3.1344,3.1362,3.1135,3.1134,3.1133,3.1133,0,0,3.0386,3.05,3.0523,3.0568,3.0659,3.0727,3.0821,3.0913,3.0962,3.1036,3.1115,3.124,3.1227,3.1282,3.1304,3.1367,3.1471,3.1345,3.1347,3.1365,3.1616,3.1625,3.1645,3.1472,3.1476,3.1478,3.1609,0,3.0507,3.0669,3.0699,3.0841,3.0922,3.093,3.1012,3.1078,3.1116,3.1192,3.1236,3.1323,3.13,3.1333,3.1396,3.1444,3.1521,3.1436,3.1547,3.1551,3.1523,3.1668,3.1678,3.1797,3.1626,3.1629,3.1631,0,3.0669,3.0744,3.0893,3.0974,3.1009,3.1081,3.1168,3.1241,3.1317,3.1341,3.1403,3.1418,3.1517,3.1473,3.1611,3.1552,3.1601,3.1632,3.1637,3.1647,3.1595,3.168,3.1836,3.1853,3.1659,3.1657,3.1655,0,3.0744,3.0883,3.099,3.1029,3.1126,3.1176,3.1219,3.1292,3.1346,3.1424,3.146,3.155,3.1599,3.1669,3.1709,3.1673,3.1844,3.1803,3.1867,3.1866,3.1901,3.1897,3.2064,3.1935,3.1935,3.1935,3.1934,0,3.0874,3.0965,3.1025,3.109,3.1193,3.1229,3.1331,3.1374,3.1439,3.1514,3.153,3.1601,3.165,3.1729,3.1762,3.1871,3.1894,3.1917,3.1924,3.1914,3.1911,3.1944,3.1936,3.1939,3.1938,3.1937,3.1937,0,3.0974,3.1018,3.1135,3.1217,3.124,3.1312,3.1383,3.1449,3.1488,3.1584,3.1609,3.1671,3.1765,3.1812,3.1931,3.1952,3.2076,3.2079,3.2049,3.2051,3.2112,3.2105,3.2304,3.2332,3.2186,3.2188,3.2189,0,3.1053,3.1123,3.1212,3.1263,3.1307,3.1389,3.1444,3.1483,3.154,3.1632,3.1687,3.1782,3.1859,3.201,3.2067,3.2158,3.2162,3.2226,3.2176,3.2164,3.2161,3.2155,3.2162,3.2234,3.2235,3.2236,3.2237,0,3.1189,3.1207,3.1284,3.1369,3.1434,3.1504,3.1572,3.1614,3.1665,3.1729,3.1824,3.1884,3.2004,3.2098,3.2193,3.224,3.2248,3.2253,3.2272,3.2262,3.2241,3.2251,3.2071,3.2248,3.2247,3.2246,3.2245,3.2245,3.128,3.1342,3.1414,3.15,3.1556,3.162,3.1685,3.1732,3.1811,3.191,3.193,3.2031,3.2107,3.2235,3.2286,3.2367,3.2353,3.2382,3.2389,3.2395,3.2396,3.223,3.2385,3.2385,3.2385,3.2385,3.2385,0,3.1414,3.1461,3.154,3.1635,3.1703,3.1703,3.178,3.1837,3.1925,3.1995,3.207,3.218,3.2272,3.2337,3.2431,3.2484,3.249,3.2507,3.2502,3.2513,3.2404,3.2377,3.25,3.25,3.25,3.25,3.25,3.25,3.1492,3.1597,3.1624,3.1758,3.1806,3.1902,3.1946,3.2006,3.2062,3.2183,3.2258,3.23,3.2368,3.2467,3.2552,3.2569,3.2603,3.262,3.2636,3.2533,3.2521,3.2509,3.2483,3.2627,3.2627,3.2738,3.2739,3.274]},{"header":{"parameterUnit":"m.s-1","parameterCategory":1,"la1":30.2991,"la2":30.254,"lo1":-89.0895,"lo2":-89.0444,"dy":0.0017,"dx":0.0017,"nx":28,"ny":28,"refTime":"2025-07-10T03:00:00:Z","depth":0,"parameterNumber":3,"parameterNumberName":"V-component_of_WINDS"},"data":[0,0,0,0,0,0,0,0,0,0,0,0,0,0,0,0,0,0,0,0,0,0,0,0,0,0,0,0,0,0,0,0,0,0,0,0,0,0,0,0,0,0,0,0,0,0,0,0,0,0,0,0,0,0,0,0,0,0,1.5652,1.5653,0,1.5766,1.5767,1.5769,1.5718,1.5715,1.5713,1.571,1.5831,1.5837,1.5843,0,0,0,0,0,0,0,0,0,0,0,0,0,1.5394,1.5399,1.5652,1.5653,1.5654,1.5766,1.5767,1.5769,1.5719,1.5715,1.5712,1.5709,1.5829,1.5836,1.5843,0,0,0,0,0,0,0,0,0,0,0,0,0,1.5507,1.5401,1.5651,1.5643,1.5643,1.5765,1.5767,1.5769,1.572,1.5715,1.5711,1.5707,1.5827,1.5835,1.5844,1.5983,0,0,1.5871,1.5875,0,0,0,0,0,0,0,0,1.5501,1.5517,1.5643,1.5644,1.5644,1.5723,1.5721,1.5841,1.5721,1.5691,1.571,1.5705,1.5799,1.581,1.5841,1.5988,1.5994,1.5872,1.5877,1.5881,1.5883,0,0,0,0,0,0,0,1.5493,1.5512,1.5697,1.5644,1.5646,1.5635,1.5646,1.5744,1.5767,1.5693,1.569,1.5704,1.5799,1.5832,1.5843,1.5995,1.5871,1.5879,1.5885,1.5888,1.6266,1.627,0,0,0,0,0,0,1.5485,1.5505,1.5693,1.57,1.5561,1.5643,1.5655,1.5702,1.5766,1.5772,1.5707,1.5701,1.5819,1.5833,1.5847,1.6016,1.5881,1.5889,1.5894,1.6261,1.6267,1.6272,0,0,0,0,0,0,1.5479,1.5502,1.5689,1.5602,1.5625,1.5652,1.5705,1.5707,1.574,1.5777,1.5781,1.5737,1.5817,1.5835,1.595,1.6019,1.5893,1.5901,1.6255,1.6263,1.6269,1.6353,0,0,0,0,0,0,1.5472,1.55,1.5552,1.5603,1.563,1.5788,1.5709,1.5712,1.5755,1.5748,1.5806,1.5811,1.5815,1.5937,1.5959,1.6029,1.5908,1.6249,1.6259,1.6267,1.6344,1.6362,1.6378,0,0,0,0,0,1.5463,1.5571,1.5555,1.5578,1.5695,1.5792,1.5807,1.5808,1.5761,1.5814,1.5838,1.5809,1.6008,1.5949,1.5973,1.6047,1.6245,1.6256,1.6266,1.6337,1.6359,1.6377,0,0,0,0,0,0,1.5528,1.5578,1.556,1.5688,1.5736,1.5783,1.5851,1.5831,1.5894,1.5885,1.5884,1.5898,1.6017,1.6043,1.5977,1.6186,1.6119,1.6135,1.6165,1.6186,1.6202,1.6194,1.5915,0,0,0,0,0,1.5557,1.5631,1.5671,1.578,1.5805,1.5824,1.5866,1.5862,1.5913,1.5933,1.5965,1.6016,1.609,1.6139,1.6209,1.6347,1.6361,1.641,1.6427,1.644,1.6455,1.6533,1.6556,1.6307,1.6307,1.6307,0,0,1.5619,1.5655,1.5701,1.5794,1.5831,1.5909,1.5841,1.5926,1.5985,1.5947,1.6057,1.6083,1.614,1.6268,1.6326,1.6293,1.6526,1.6454,1.6465,1.6472,1.6546,1.657,1.6591,1.6314,1.6313,1.6312,0,0,1.577,1.5804,1.59,1.5938,1.5995,1.6007,1.603,1.6081,1.6096,1.6207,1.618,1.6251,1.6377,1.642,1.6458,1.6628,1.6606,1.6651,1.6739,1.6815,1.6834,1.6852,1.6915,1.6937,1.6665,1.6665,1.6665,0,1.584,1.5955,1.5951,1.6039,1.6082,1.605,1.6148,1.6186,1.6263,1.6294,1.6256,1.6416,1.6452,1.6591,1.6633,1.6664,1.6692,1.6645,1.6831,1.6849,1.6865,1.6925,1.6949,1.667,1.667,1.6669,1.6669,0,1.6039,1.6119,1.619,1.6265,1.6315,1.6408,1.642,1.6472,1.6464,1.6481,1.6596,1.6638,1.6717,1.6749,1.6742,1.6888,1.6866,1.683,1.6763,1.6894,1.6951,1.6974,1.6678,1.6676,1.6675,1.6673,0,0,1.6235,1.6307,1.6333,1.6368,1.6429,1.6492,1.6584,1.6661,1.6706,1.6761,1.684,1.6948,1.6916,1.6959,1.6957,1.7023,1.7158,1.6979,1.6981,1.7013,1.7324,1.7353,1.7379,1.7143,1.7147,1.715,1.732,0,1.6393,1.6553,1.6553,1.6702,1.6778,1.675,1.683,1.6877,1.6896,1.6964,1.6985,1.7063,1.7012,1.7039,1.7103,1.7128,1.7221,1.7116,1.7219,1.7222,1.7207,1.7409,1.7439,1.7597,1.7342,1.7346,1.7349,0,1.6598,1.6659,1.6816,1.6867,1.6899,1.6972,1.7043,1.7108,1.7162,1.7171,1.722,1.7208,1.7305,1.7234,1.7367,1.7296,1.7338,1.7357,1.7363,1.7374,1.7295,1.7428,1.7647,1.7672,1.7383,1.738,1.7378,0,1.6729,1.685,1.696,1.699,1.7053,1.7105,1.7133,1.7183,1.7229,1.7292,1.7323,1.7396,1.7437,1.7495,1.7504,1.7451,1.764,1.7569,1.7652,1.7652,1.7695,1.7692,1.7926,1.7718,1.7718,1.7717,1.7717,0,1.6906,1.7004,1.702,1.7087,1.7197,1.7197,1.7305,1.733,1.7374,1.7448,1.7427,1.7497,1.7504,1.7577,1.7585,1.7696,1.7714,1.7726,1.7727,1.7729,1.7728,1.7758,1.7748,1.7724,1.7722,1.7721,1.772,0,1.7071,1.7085,1.7203,1.7253,1.7268,1.7347,1.739,1.7456,1.7472,1.7566,1.7588,1.7615,1.7699,1.7714,1.7813,1.7818,1.7952,1.7941,1.7934,1.7934,1.8017,1.801,1.8281,1.8317,1.8083,1.8085,1.8087,0,1.7184,1.7258,1.7317,1.7364,1.7395,1.7472,1.752,1.7524,1.7574,1.7642,1.7701,1.7783,1.7849,1.7986,1.8015,1.8092,1.8084,1.8174,1.8096,1.8096,1.8089,1.8085,1.8094,1.8189,1.8192,1.8194,1.8196,0,1.7385,1.7389,1.7457,1.753,1.7588,1.7645,1.7699,1.774,1.7751,1.781,1.7896,1.7947,1.8049,1.8132,1.8209,1.824,1.8222,1.822,1.8244,1.8248,1.8242,1.8249,1.7978,1.8214,1.8212,1.8211,1.821,1.8209,1.7529,1.7595,1.7646,1.7725,1.7766,1.7818,1.7883,1.7908,1.7979,1.8062,1.806,1.8155,1.821,1.831,1.8347,1.8422,1.8394,1.8428,1.8437,1.8446,1.8455,1.8227,1.8436,1.8436,1.8435,1.8435,1.8434,0,1.7731,1.7763,1.7835,1.7912,1.7974,1.7949,1.8009,1.8063,1.8147,1.8198,1.8264,1.8365,1.8445,1.8481,1.8561,1.8615,1.8609,1.8636,1.8634,1.8642,1.8475,1.8447,1.864,1.864,1.864,1.864,1.864,1.864,1.7843,1.7954,1.7964,1.8096,1.8128,1.8221,1.8257,1.8306,1.8347,1.846,1.8527,1.8549,1.8595,1.8679,1.8753,1.8761,1.8793,1.8825,1.883,1.8674,1.8653,1.8633,1.8608,1.8831,1.8832,1.8991,1.8993,1.8994]}]]